sat.trackr.live / text

‹ back to catalog

STARLINK-36531

NORAD 67513 · 2026-012W

PAYLOAD ACTIVE UNKNOWN

§ Identity

Operator
Country
US
Launch date
2026-01-18
Launch site
AFETR
Launch vehicle
Mass (kg)
RCS (m²)

Purposes: comms

External: N2YO · Heavens-Above · Gunter

§ Orbital elements

Epoch: 2026-05-24T16:30:39.199680Z

Period
94.26 min
Inclination
43.0007°
Eccentricity
0.0002082
Mean motion
15.27620933 rev/d
Perigee alt
481.5 km
Apogee alt
484.4 km
Semi-major
6,861.1 km
B*
1.1728e-3
RAAN
245.3024°
Arg perigee
275.4741°
Mean anomaly
84.5873°
Rev number
1,938

§ Raw data

STARLINK-365311 67513U 26012W   26144.68795370  .00032193  00000+0  11728-2 0  99932 67513  43.0007 245.3024 0002082 275.4741  84.5873 15.27620933 19384

JSON: /api/v1/satellites/67513 · /tle

For live sub-satellite position, see the globe view (requires WebGL).

§ Visibility from observer

Set your observer location to see the next 7 days of passes ≥ 10°. The values pass through the URL so the page stays shareable.

No JS? Fill the form by hand. The geolocation button needs JavaScript.